Location: Unspecified
(0.0000°N, 0.0000°E)
Time: 01:08:19
(UTC+00:00)

RS-15 - Pass Details

Date: 18 February 2026
Orbit: 1894 x 2150 km, 64.8° (Epoch: 7 March)

Event Time Altitude Azimuth Distance (km) Brightness Sun altitude
Rises 21:10:47 0° 174° (S) 5,407 10.5 -43.1°
Reaches altitude 10° 21:15:20 10° 160° (SSE) 4,367 9.8 -44.2°
Enters shadow 21:15:50 11° 158° (SSE) 4,268 9.7 -44.4°
